Flag for Brazil Weather past 2 weeks in Londrina, Paraná, Brazil

Now
55 °F

Light rain. Broken clouds.


Feels Like: 53 °F
Forecast: 48 / 68 °F
Wind: 8 mph from South

Location: Londrina Aeroporto

Current Time: May 30, 2015 at 2:49:02 PM

Latest Report: May 30, 2015 at 2:00 PM


Visibility: 2 mi

Pressure: 30.07 "Hg

Humidity: 100%

Dew point: 55 °F

Location of LondrinaLocation

Historic Weather in Londrina — Graph

°F

Londrina temperature yesterday

Maximum temperature yesterday: 72 °F (at 2:00 PM)
Minimum temperature yesterday: 54 °F (at 6:00 AM)
Average temperature yesterday: 61 °F

Past Weeks' High & Low Weather Summary

 TemperatureHumidityPressure
High84 °F (May 25, 1:00 PM)100% (May 19, 12:00 AM)30.27 "Hg (May 19, 12:00 AM)
Low50 °F (May 30, 6:00 AM)41% (May 29, 2:00 PM)29.95 "Hg (May 29, 2:00 PM)
Average69 °F81%30.11 "Hg
* Reported May 15 1:00 PM — May 30 1:00 PM, Londrina, Weather by CustomWeather, © 2015

Note: Actual official high and low records may vary slightly from our data, if they occured in-between our weather recording intervals... More about our weather records

Advertising

Londrina weather history for previous 24 hours

 ConditionsComfort  
Time TempWeatherWind HumidityBarometerVisibility
1:00 PM
Sat, May 30
55 °FRain. Broken clouds.7 mph100%30.07 "Hg2 mi
12:00 PM55 °FLight rain. Partly sunny.3 mph94%30.07 "Hg4 mi
11:00 AM55 °FPartly sunny.No wind94%30.09 "Hg6 mi
10:00 AM55 °FLight rain. Broken clouds.1 mph94%30.09 "Hg6 mi
9:00 AM55 °FLight fog.3 mph88%30.09 "HgN/A
8:00 AM54 °FFog.5 mph88%30.04 "HgN/A
7:00 AM52 °FSunny.2 mph94%30.04 "Hg10 mi
6:00 AM50 °FSunny.5 mph100%29.98 "Hg10 mi
5:00 AM52 °FClear.No wind94%29.98 "Hg10 mi
4:00 AM52 °FClear.3 mph94%30.01 "Hg10 mi
3:00 AM54 °FClear.No wind88%30.01 "Hg10 mi
2:00 AM55 °FClear.2 mph88%30.01 "Hg10 mi
1:00 AM55 °FClear.2 mph88%30.01 "Hg10 mi
12:00 AM57 °FClear.No wind82%30.01 "Hg10 mi
11:00 PM
Fri, May 29
57 °FClear.No wind82%30.01 "Hg10 mi
10:00 PM59 °FClear.No wind77%30.01 "Hg10 mi
9:00 PM59 °FClear.3 mph77%30.01 "Hg10 mi
8:00 PM61 °FClear.5 mph72%30.01 "Hg10 mi
7:00 PM63 °FClear.5 mph68%29.98 "Hg10 mi
6:00 PM64 °FPassing clouds.5 mph60%29.98 "HgN/A
5:00 PM68 °FPassing clouds.7 mph49%29.95 "HgN/A
4:00 PM70 °FPassing clouds.7 mph46%29.95 "HgN/A
3:00 PM72 °FPassing clouds.8 mph41%29.95 "HgN/A
2:00 PM72 °FScattered clouds.6 mph41%29.95 "HgN/A
Weather by CustomWeather, © 2015

See weather overviewHow to use our weather pages